Date String (YYYY-MM-DD hh:mm:ss) UTC,Instrument flags,absolute air pressure of the measurement (hPa),sample flow rate (lpm),inlet stack bypass flow (lpm),air temperature of the measurement (°C),ambient temperature measured by the external sensor (°C),aerosol sample conditioner tube jacket temperature (°C),OPC LED temperature (°C),internal box temperature (°C),relative humidity of the measurement (%),span deviation,mass concentration of particles derived from Lorenz-Mie calculation of OPC scattering (μg/m³),mass concentration of particles derived from Lorenz-Mie calculation of OPC scattering (μg/m³),mass concentration of particles derived from Lorenz-Mie calculation of OPC scattering (μg/m³)
DateTimeUTC,F1_M11,P_M11,Q1_M11,Q2_M11,T1_M11,T2_M11,T3_M11,T4_M11,T5_M11,U1_M11,ZSPAN_M11,X0_M11,X2_M11,X1_M11
2023-06-15 05:00:00,SystemResetWarning,0826.1,5.00,000.00,029.8,028.3,000.0,038.4,031.4,26.0,0000.0,0011.35,0003.96,0003.30
2023-06-15 05:01:00,SystemResetWarning,0826.0,5.00,000.00,029.9,028.3,000.0,038.4,031.4,26.2,0000.0,0011.72,0003.92,0003.27
2023-06-15 05:02:00,SystemResetWarning,0826.1,5.00,000.00,029.9,028.4,000.0,038.4,031.4,26.2,0000.0,0012.21,0003.90,0003.26
2023-06-15 05:03:00,SystemResetWarning,0826.0,5.01,000.00,029.9,028.4,000.0,038.4,031.5,26.2,0000.0,0012.02,0003.84,0003.25
2023-06-15 05:04:00,SystemResetWarning,0826.1,5.01,000.00,029.9,028.5,000.0,038.4,031.5,26.2,0000.0,0012.09,0003.79,0003.23
2023-06-15 05:05:00,SystemResetWarning,0826.1,5.01,000.00,030.0,028.5,000.0,038.4,031.5,26.1,0000.0,0011.90,0003.80,0003.23
2023-06-15 05:06:00,SystemResetWarning,0826.2,5.00,000.00,030.0,028.5,000.0,038.5,031.5,26.1,0000.0,0011.98,0003.80,0003.23
2023-06-15 05:07:00,SystemResetWarning,0826.2,5.00,000.00,030.0,028.6,000.0,038.5,031.6,25.9,0000.0,0012.16,0003.82,0003.23
2023-06-15 05:08:00,SystemResetWarning,0826.2,5.00,000.00,030.0,028.6,000.0,038.5,031.6,25.8,0000.0,0011.95,0003.79,0003.22
2023-06-15 05:09:00,SystemResetWarning,0826.2,5.00,000.00,030.0,028.6,000.0,038.5,031.7,25.8,0000.0,0011.98,0003.79,0003.22
2023-06-15 05:10:00,SystemResetWarning,0826.2,5.00,000.00,030.1,028.7,000.0,038.5,031.7,25.8,0000.0,0012.01,0003.81,0003.20
2023-06-15 05:11:00,SystemResetWarning,0826.2,5.00,000.00,030.1,028.7,000.0,038.6,031.7,25.8,0000.0,0011.48,0003.83,0003.18
2023-06-15 05:12:00,SystemResetWarning,0826.2,5.00,000.00,030.1,028.7,000.0,038.6,031.7,25.7,0000.0,0010.84,0003.83,0003.16
2023-06-15 05:13:00,SystemResetWarning,0826.3,5.01,000.00,030.1,028.8,000.0,038.6,031.7,25.7,0000.0,0010.03,0003.85,0003.12
2023-06-15 05:14:00,SystemResetWarning,0826.3,4.99,000.00,030.2,028.2,000.0,038.6,031.7,25.5,0000.0,0009.78,0003.85,0003.10
2023-06-15 05:15:00,SystemResetWarning,0826.3,5.00,000.00,030.1,025.8,000.0,038.5,031.6,25.4,0000.0,0009.24,0003.84,0003.05
2023-06-15 05:16:00,SystemResetWarning,0826.3,5.00,000.00,030.1,024.8,000.0,038.5,031.5,25.4,0000.0,0009.05,0003.81,0003.01
2023-06-15 05:17:00,SystemResetWarning,0826.2,5.01,000.00,030.0,024.9,000.0,038.5,031.1,25.7,0000.0,0008.83,0003.79,0002.96
2023-06-15 05:18:00,SystemResetWarning,0826.3,5.01,000.00,029.8,025.3,000.0,038.5,031.1,25.8,0000.0,0008.57,0003.72,0002.90
2023-06-15 05:19:00,SystemResetWarning,0826.3,4.99,000.00,029.8,025.8,000.0,038.4,031.1,25.9,0000.0,0009.44,0003.76,0002.87
2023-06-15 05:20:00,SystemResetWarning,0826.3,5.00,000.00,029.8,026.3,000.0,038.4,031.1,25.9,0000.0,0008.87,0003.72,0002.83
2023-06-15 05:21:00,SystemResetWarning,0826.3,5.01,000.00,029.8,026.7,000.0,038.4,031.1,25.9,0000.0,0008.73,0003.64,0002.78
2023-06-15 05:22:00,SystemResetWarning,0826.3,5.00,000.00,029.8,027.0,000.0,038.4,031.1,26.0,0000.0,0009.00,0003.59,0002.77
2023-06-15 05:23:00,SystemResetWarning,0826.3,4.98,000.00,029.8,027.2,000.0,038.4,031.2,26.0,0000.0,0009.12,0003.58,0002.77
2023-06-15 05:24:00,SystemResetWarning,0826.3,5.01,000.00,029.8,027.5,000.0,038.4,031.2,26.0,0000.0,0008.99,0003.55,0002.78
2023-06-15 05:25:00,SystemResetWarning,0826.3,5.01,000.00,029.8,027.7,000.0,038.4,031.3,26.0,0000.0,0009.00,0003.54,0002.77
2023-06-15 05:26:00,SystemResetWarning,0826.3,5.00,000.00,029.8,027.8,000.0,038.4,031.3,25.8,0000.0,0008.99,0003.53,0002.78
2023-06-15 05:27:00,SystemResetWarning,0826.3,5.00,000.00,029.8,027.9,000.0,038.4,031.3,25.8,0000.0,0009.10,0003.52,0002.77
2023-06-15 05:28:00,SystemResetWarning,0826.3,5.00,000.00,029.8,028.0,000.0,038.4,031.3,25.7,0000.0,0008.99,0003.54,0002.76
2023-06-15 05:29:00,SystemResetWarning,0826.4,5.00,000.00,029.8,028.1,000.0,038.4,031.3,25.7,0000.0,0009.28,0003.52,0002.74
2023-06-15 05:30:00,SystemResetWarning,0826.4,5.00,000.00,029.8,028.2,000.0,038.4,031.3,25.7,0000.0,0008.56,0003.47,0002.73
2023-06-15 05:31:00,SystemResetWarning,0826.4,5.00,000.00,029.9,028.3,000.0,038.4,031.4,25.7,0000.0,0008.70,0003.49,0002.73
2023-06-15 05:32:00,SystemResetWarning,0826.4,5.00,000.00,029.9,028.3,000.0,038.4,031.4,25.8,0000.0,0008.69,0003.52,0002.72
2023-06-15 05:33:00,SystemResetWarning,0826.4,5.01,000.00,029.9,028.4,000.0,038.4,031.5,25.9,0000.0,0008.08,0003.54,0002.73
2023-06-15 05:34:00,SystemResetWarning,0826.4,5.01,000.00,029.9,028.4,000.0,038.4,031.5,25.9,0000.0,0008.16,0003.57,0002.71
2023-06-15 05:35:00,SystemResetWarning,0826.6,5.01,000.00,029.9,028.4,000.0,038.5,031.5,25.8,0000.0,0008.19,0003.58,0002.71
2023-06-15 05:36:00,SystemResetWarning,0826.6,5.00,000.00,030.0,028.4,000.0,038.5,031.5,25.8,0000.0,0008.51,0003.57,0002.70
2023-06-15 05:37:00,SystemResetWarning,0826.6,5.00,000.00,030.0,028.5,000.0,038.5,031.5,25.8,0000.0,0008.84,0003.56,0002.68
2023-06-15 05:38:00,SystemResetWarning,0826.6,5.00,000.00,030.0,028.5,000.0,038.5,031.5,25.8,0000.0,0008.80,0003.56,0002.69
2023-06-15 05:39:00,SystemResetWarning,0826.6,5.00,000.00,030.0,028.5,000.0,038.5,031.5,25.7,0000.0,0008.51,0003.49,0002.68
2023-06-15 05:40:00,SystemResetWarning,0826.6,5.00,000.00,030.0,028.5,000.0,038.5,031.5,25.8,0000.0,0008.29,0003.47,0002.69
2023-06-15 05:41:00,SystemResetWarning,0826.6,4.99,000.00,030.0,028.5,000.0,038.5,031.6,25.9,0000.0,0008.71,0003.53,0002.71
2023-06-15 05:42:00,SystemResetWarning,0826.6,4.99,000.00,030.0,028.5,000.0,038.5,031.6,25.8,0000.0,0009.00,0003.56,0002.73
2023-06-15 05:43:00,SystemResetWarning,0826.6,5.00,000.00,030.0,028.5,000.0,038.6,031.6,25.7,0000.0,0009.36,0003.58,0002.76
2023-06-15 05:44:00,SystemResetWarning,0826.6,5.00,000.00,030.1,028.5,000.0,038.6,031.6,25.6,0000.0,0010.81,0003.59,0002.77
2023-06-15 05:45:00,SystemResetWarning,0826.6,5.00,000.00,030.1,028.6,000.0,038.6,031.7,25.5,0000.0,0010.71,0003.61,0002.79
2023-06-15 05:46:00,SystemResetWarning,0826.6,5.01,000.00,030.1,028.6,000.0,038.6,031.7,25.6,0000.0,0010.60,0003.60,0002.80
2023-06-15 05:47:00,SystemResetWarning,0826.6,5.00,000.00,030.1,028.6,000.0,038.6,031.7,25.6,0000.0,0010.64,0003.61,0002.84
2023-06-15 05:48:00,SystemResetWarning,0826.6,5.00,000.00,030.1,028.6,000.0,038.6,031.7,25.5,0000.0,0010.23,0003.63,0002.88
2023-06-15 05:49:00,SystemResetWarning,0826.6,5.00,000.00,030.2,028.6,000.0,038.7,031.7,25.3,0000.0,0010.27,0003.66,0002.90
2023-06-15 05:50:00,SystemResetWarning,0826.6,5.01,000.00,030.2,028.7,000.0,038.7,031.7,25.3,0000.0,0010.41,0003.68,0002.91
2023-06-15 05:51:00,SystemResetWarning,0826.6,5.00,000.00,030.2,028.7,000.0,038.7,031.7,25.2,0000.0,0010.96,0003.70,0002.92
2023-06-15 05:52:00,SystemResetWarning,0826.6,4.99,000.00,030.2,028.7,000.0,038.7,031.7,25.2,0000.0,0010.54,0003.66,0002.93
2023-06-15 05:53:00,SystemResetWarning,0826.6,4.99,000.00,030.2,028.7,000.0,038.7,031.7,25.2,0000.0,0009.96,0003.64,0002.93
2023-06-15 05:54:00,SystemResetWarning,0826.6,4.99,000.00,030.2,028.7,000.0,038.7,031.8,25.1,0000.0,0009.60,0003.60,0002.90
2023-06-15 05:55:00,SystemResetWarning,0826.6,5.00,000.00,030.2,027.0,000.0,038.7,031.7,24.9,0000.0,0008.13,0003.58,0002.88
2023-06-15 05:56:00,SystemResetWarning,0826.5,5.00,000.00,030.2,025.0,000.0,038.6,031.6,25.1,0000.0,0008.61,0003.55,0002.87
2023-06-15 05:57:00,SystemResetWarning,0826.4,5.01,000.00,030.1,024.7,000.0,038.6,031.4,25.4,0000.0,0009.12,0003.56,0002.89
2023-06-15 05:58:00,SystemResetWarning,0826.3,5.02,000.00,030.0,025.0,000.0,038.5,031.1,25.8,0000.0,0009.10,0003.57,0002.88
2023-06-15 05:59:00,SystemResetWarning,0826.4,5.00,000.00,029.9,025.5,000.0,038.5,031.1,25.9,0000.0,0009.20,0003.59,0002.90
